Regional Weather Roundup
Issued by NWS New Orleans/Baton Rouge, LA

Home | Current Version | Previous Version | Graphics & Text | Print | Product List | Glossary On
Versions: 1 2 3 4 5 6 7 8 9 10 11 12 13 14 15 16 17 18 19 20 21 22 23 24 25 26 27 28 29 30 31 32 33 34 35 36 37 38 39 40 41 42 43 44 45 46 47 48 49 50
346
ASUS44 KLIX 220810
RWRLIX
NEW ORLEANS REGIONAL WEATHER ROUNDUP
NATIONAL WEATHER SERVICE NEW ORLEANS LA
300 AM CDT TUE JUL 22 2014

NOTE: "FAIR" INDICATES FEW OR NO CLOUDS BELOW 12,000 FEET WITH NO
      SIGNIFICANT WEATHER AND/OR OBSTRUCTIONS TO VISIBILITY.
      SKY/WX - SKY CONDITION AND SIGNIFICANT WEATHER.
      TMP - AIR TEMPERATURE.     DP    - DEWPOINT TEMPERATURE.
      RH  - RELATIVE HUMIDITY.   PRES  - PRESSURE.
      HI  - HEAT INDEX.          WCI   - WIND CHILL INDEX.

*  THESE STATIONS ARE NOT NWS OR FAA STATIONS AND ARE NOT UNDER
   NWS QUALITY CONTROL.

LAZ038-040-048-061>063-065>067-069-220900-
SOUTHEAST LOUISIANA

CITY           SKY/WX    TMP DP  RH WIND       PRES   REMARKS
N.O. AUDUBON     N/A     79  76  90 MISG        N/A
N.O. INTL ARPT PTCLDY    78  74  87 W5        29.99F
N.O. LAKEFRONT CLOUDY    81  77  88 SW6       29.99F
N.O. DOWNTOWN*   N/A     82  73  74 CALM      30.00S
SLIDELL        CLEAR     74  71  91 CALM      29.98F
BATON ROUGE    CLEAR     72  70  93 CALM      30.01S
BOOTHVILLE     CLEAR     79  76  90 CALM      29.99S
BELLE CHASSE   MOCLDY    77  73  87 W3        29.98F
BOGALUSA*        N/A     73  69  88 CALM      30.01S
GALLIANO*      NOT AVBL
NEW ROADS*       N/A     72  71  97 CALM      30.01F
GONZALES*        N/A     74  74  99 CALM      29.99F FOG
HAMMOND*       CLEAR     73  70  88 CALM      30.01S
HOUMA*         FOG       76  73  91 CALM      29.99S VSB 1/2
PORT FOURCHON* MOSUNNY   82  77  83 S5        30.01F

$$

MSZ070-080>082-220900-
SOUTHERN MISSISSIPPI

CITY           SKY/WX    TMP DP  RH WIND       PRES   REMARKS
MCCOMB         CLEAR     71  68  90 N3        30.02S
GULFPORT       CLEAR     77  71  82 CALM      29.98F
BILOXI         CLEAR     77  73  85 VRB1      29.98F
PASCAGOULA     PTCLDY    74  72  93 CALM      29.98S

$$

COASTAL OBSERVATIONS
LAKE AND NEARSHORE STATIONS

STATION/POSITION TIME  TEMP    WIND        PRES    WAVE
                       AIR SEA DIR/SP/G            HT/PER
                 (UTC) (F)     (DEG/KT/KT) (MB)    (FT/S)
PASCAGOULA       0800   78     270/  6/  7 1014.5
WAVELAND YACHT   0800   79     260/  3/  4 1014.6
GRAND ISLE       0800   81 85  230/  2/  3 1016.0
SOUTHWEST PASS   0800   82 85  220/  6/  8 1015.7
NEW CANAL        0800   81 85  220/  3/  4 1015.8
SHELL BEACH      0800   80 82  200/  5/  5 1015.3

OFFSHORE STATIONS

STATION/POSITION TIME  TEMP    WIND        PRES    WAVE
                       AIR SEA DIR/SP/G            HT/PER
                 (UTC) (F)     (DEG/KT/KT) (MB)    (FT/S)
64 S DAUPHIN ISL 0739   82 83  240/  4/  6 1015.5

$$




USA.gov is the U.S. government's official web portal to all federal, state and local government web resources and services.